Regional Weather Roundup
Issued by NWS Charleston, WV

Home | Current Version | Previous Version | Graphics & Text | Print | Product List | Glossary On
Versions: 1 2 3 4 5 6 7 8 9 10 11 12 13 14 15 16 17 18 19 20 21 22 23 24 25 26 27 28 29 30 31 32 33 34 35 36 37 38 39 40 41 42 43 44 45 46 47 48 49 50
000
ASUS41 KRLX 280810
RWRRLX
West Virginia Regional Weather Roundup
National Weather Service Charleston WV
400 AM EDT TUE JUL 28 2015

Note: "fair" indicates few or no clouds below 12,000 feet with no
significant weather and/or obstructions to visibility.

WVZ003-280900-
Northern Panhandle of West Virginia

CITY           SKY/WX    TMP DP  RH WIND       PRES   REMARKS
WHEELING       PTCLDY    70  63  78 NE5       30.01S
$$

WVZ009-280900-
Northwest West Virginia

CITY           SKY/WX    TMP DP  RH WIND       PRES   REMARKS
PARKERSBURG    MOCLDY    69  68  96 CALM      30.01S FOG
$$

WVZ006-280900-
Western West Virginia

CITY           SKY/WX    TMP DP  RH WIND       PRES   REMARKS
HUNTINGTON     PTCLDY    71  71 100 CALM      29.98F FOG
$$

WVZ015-280900-
West Central West Virginia

CITY           SKY/WX    TMP DP  RH WIND       PRES   REMARKS
CHARLESTON     FOG       70  69  97 CALM      29.99F VSB 1
$$

WVZ022-031-280900-
North Central West Virginia

CITY           SKY/WX    TMP DP  RH WIND       PRES   REMARKS
CLARKSBURG     CLEAR     69  68  96 CALM      30.01S
MORGANTOWN     CLEAR     73  65  75 CALM      30.02F
$$

WVZ025-035-042-045-280900-
Southern West Virginia

CITY           SKY/WX    TMP DP  RH WIND       PRES   REMARKS
BECKLEY        TSTM      68  66  93 E7        30.09F FOG
LOGAN            N/A     72  70  94 CALM      29.99F
BLUEFIELD      CLOUDY    70  66  87 CALM      30.11F
LEWISBURG      FOG       66  64  93 NE6       30.08F VSB 1/4
$$

WVZ047-280900-
Northern Mountains of West Virginia

CITY           SKY/WX    TMP DP  RH WIND       PRES   REMARKS
ELKINS         CLEAR     67  65  93 SW3       30.07F FOG
$$

WVZ052-280900-
Eastern Panhandle of West Virginia

CITY           SKY/WX    TMP DP  RH WIND       PRES   REMARKS
MARTINSBURG    MOCLDY    72  69  90 CALM      30.02S FOG
PETERSBURG     FOG      N/A N/A N/A CALM      30.05S VSB 1
$$


USA.gov is the U.S. government's official web portal to all federal, state and local government web resources and services.